Weather History for Hof Plauen, Germany

Change the Weather History Date:

Friday, February 15, 2013

  Actual Average Record
Temperature  
Mean Temperature 28 °F -  
Max Temperature 34 °F 34 °F 53 °F (2001)
Min Temperature 21 °F 26 °F 10 °F (2003)
Degree Days  
Heating Degree Days 38    
Moisture  
Dew Point 21 °F    
Average Humidity 77    
Maximum Humidity 94    
Minimum Humidity 54    
Precipitation  
Precipitation 0.00 in - - ()
Sea Level Pressure  
Sea Level Pressure 30.03 in    
Wind  
Wind Speed 6 mph ()    
Max Wind Speed 12 mph    
Max Gust Speed -    
Visibility 3.3 miles    
Events Snow    
Averages and records for this station are not official NWS values.
T = Trace of Precipitation, MM = Missing Value Source: Averaged Metar Reports

Daily Weather History Graph

Daily Weather History Graph

Search for Another Location

Airport:

Trip Planner

Search our weather history database for the weather conditions in past years. The results will help you decide how hot, cold, wet, or windy it might be!

Date:

Astronomy

Feb. 15, 2013 Rise Set
Actual Time 7:23 AM CET 5:30 PM CET
Civil Twilight 6:50 AM CET 6:04 PM CET
Nautical Twilight 6:12 AM CET 6:42 PM CET
Astronomical Twilight 5:34 AM CET 7:19 PM CET
Moon 9:11 AM CET (2/15) 11:57 PM CET (2/15)
Length of Visible Light 11h 14m
Length of Day
10h 06m
Waxing Crescent, 28% of the Moon is Illuminated
Feb 15
Waxing Crescent
Feb 17
First Quarter
Feb 25
Full
Mar 4
Last Quarter
Mar 11
New

Hourly Weather History & Observations

Time (CET) Temp. Windchill Dew Point Humidity Pressure Visibility Wind Dir Wind Speed Gust Speed Precip Events Conditions
12:00 AM 28 °F - 25 °F 84% 30.08 in 2 mi South 6.7 mph - -   Mist
12:20 AM 28.4 °F 19.1 °F 23.0 °F 80% 29.98 in 6.2 mi South 10.4 mph - N/A   Overcast
12:50 AM 28.4 °F 18.5 °F 23.0 °F 80% 29.98 in 5.6 mi South 11.5 mph - N/A   Overcast
1:00 AM 28 °F - 25 °F 82% 30.08 in 2 mi South 6.7 mph - -   Mist
1:20 AM 28.4 °F 18.5 °F 23.0 °F 80% 29.98 in 5.0 mi SSE 11.5 mph - N/A   Overcast
1:50 AM 28.4 °F 19.1 °F 21.2 °F 74% 29.95 in 4.3 mi South 10.4 mph - N/A   Overcast
2:00 AM 27 °F - 24 °F 84% 30.06 in 2 mi South 6.7 mph - -   Mist
2:20 AM 26.6 °F 16.8 °F 21.2 °F 80% 29.95 in 5.0 mi South 10.4 mph - N/A   Overcast
2:50 AM 26.6 °F 19.1 °F 21.2 °F 80% 29.95 in 3.7 mi SSE 6.9 mph - N/A   Overcast
3:00 AM 27 °F - 24 °F 81% 30.06 in 2 mi SSE 6.7 mph - -   Mist
3:20 AM 24.8 °F 16.9 °F 19.4 °F 80% 29.95 in 3.7 mi SSE 6.9 mph - N/A   Partly Cloudy
3:50 AM 21.2 °F 14.9 °F 15.8 °F 80% 29.95 in 3.7 mi SSE 4.6 mph - N/A   Mist
4:20 AM 21.2 °F 13.6 °F 17.6 °F 86% 29.95 in 3.1 mi SSE 5.8 mph - N/A   Mist
4:50 AM 21.2 °F 14.9 °F 17.6 °F 86% 29.95 in - SSE 4.6 mph - N/A   Mist
5:20 AM 21.2 °F 12.6 °F 17.6 °F 86% 29.92 in - SE 6.9 mph - N/A   Mist
5:50 AM 21.2 °F 13.6 °F 17.6 °F 86% 29.92 in - SSE 5.8 mph - N/A   Mist
6:00 AM 22 °F - 20 °F 89% 30.06 in 3 mi SE 4.5 mph - -   Mist
6:20 AM 21.2 °F 14.9 °F 17.6 °F 86% 29.92 in 1.8 mi SSE 4.6 mph - N/A   Mist
6:50 AM 21.2 °F 16.4 °F 17.6 °F 86% 29.95 in 1.6 mi SSE 3.5 mph - N/A   Mist
7:00 AM 23 °F - 21 °F 88% 30.06 in 2 mi SSE 2.2 mph - -   Mist
7:20 AM 23.0 °F - 19.4 °F 86% 29.95 in 1.7 mi South 2.3 mph - N/A   Mist
7:50 AM 23.0 °F - 19.4 °F 86% 29.95 in 1.9 mi SW 2.3 mph - N/A   Mist
8:00 AM 22 °F - 21 °F 94% 30.08 in 2 mi South 2.2 mph - -   Mist
8:20 AM 23.0 °F - 19.4 °F 86% 29.95 in 1.9 mi SSW 1.2 mph - N/A   Mist
8:50 AM 24.8 °F - 19.4 °F 80% 29.95 in 2.2 mi Calm Calm - N/A   Mist
9:00 AM 26 °F - 22 °F 78% 30.07 in 2 mi SSE 2.2 mph - -   Mist
9:20 AM 24.8 °F - 17.6 °F 74% 29.95 in 1.6 mi Variable 2.3 mph - N/A   Mist
9:50 AM 26.6 °F - 19.4 °F 74% 29.98 in - South 1.2 mph - N/A   Mist
10:20 AM 30.2 °F - 19.4 °F 64% 29.98 in 3.1 mi South 2.3 mph - N/A   Mist
10:50 AM 26.6 °F 22.6 °F 19.4 °F 74% 29.98 in 2.5 mi SE 3.5 mph - N/A   Mist
11:00 AM 28 °F - 22 °F 71% 30.09 in 2 mi SSE 2.2 mph - -   Haze
11:20 AM 28.4 °F 23.3 °F 19.4 °F 69% 30.01 in 3.1 mi SSE 4.6 mph - N/A   Mist
11:50 AM 30.2 °F 25.4 °F 21.2 °F 69% 30.01 in 3.1 mi SSE 4.6 mph - N/A   Mist
12:00 PM 29 °F - 22 °F 65% 30.09 in 2 mi South 4.5 mph - -   Haze
12:20 PM 32.0 °F 28.7 °F 21.2 °F 64% 30.01 in 4.3 mi South 3.5 mph - N/A   Unknown
12:50 PM 32.0 °F 27.5 °F 21.2 °F 64% 30.01 in 4.3 mi South 4.6 mph - N/A   Unknown
1:00 PM 31 °F - 22 °F 60% 30.09 in 3 mi South 4.5 mph - -   Haze
1:20 PM 32.0 °F 26.4 °F 21.2 °F 64% 30.01 in 5.0 mi SSE 5.8 mph - N/A   Unknown
1:50 PM 32.0 °F 27.5 °F 21.2 °F 64% 30.01 in 5.0 mi SW 4.6 mph - N/A   Unknown
2:00 PM 32 °F - 23 °F 57% 30.08 in 4 mi SW 4.5 mph - -   Haze
2:20 PM 33.8 °F 29.6 °F 21.2 °F 60% 30.01 in 5.6 mi SW 4.6 mph - N/A   Unknown
2:50 PM 32.0 °F 26.4 °F 19.4 °F 60% 30.01 in 5.0 mi WSW 5.8 mph - N/A   Unknown
3:00 PM 33 °F - 23 °F 54% 30.08 in 6 mi WSW 4.5 mph - -   Clear
3:20 PM 32.0 °F 26.4 °F 21.2 °F 64% 30.01 in 5.6 mi WSW 5.8 mph - N/A   Unknown
3:50 PM 32.0 °F 25.6 °F 21.2 °F 64% 30.01 in 5.6 mi WSW 6.9 mph - N/A   Unknown
4:20 PM 30.2 °F 24.3 °F 21.2 °F 69% 30.01 in 5.6 mi WSW 5.8 mph - N/A   Unknown
4:50 PM 28.4 °F 22.2 °F 19.4 °F 69% 30.01 in 4.3 mi SW 5.8 mph - N/A   Unknown
5:00 PM 29 °F - 22 °F 68% 30.12 in 6 mi SW 4.5 mph - -   Scattered Clouds
5:20 PM 26.6 °F 21.2 °F 19.4 °F 74% 30.04 in 3.7 mi SSW 4.6 mph - N/A   Unknown
5:50 PM 28.4 °F 22.2 °F 21.2 °F 74% 30.04 in 3.1 mi SW 5.8 mph - N/A   Mostly Cloudy
6:00 PM 28 °F - 23 °F 74% 30.15 in 4 mi WSW 4.5 mph - -   Mist
6:50 PM 28.4 °F 21.2 °F 21.2 °F 74% 30.06 in 3.7 mi WSW 6.9 mph - N/A   Mostly Cloudy
7:00 PM 29 °F - 23 °F 71% 30.17 in 4 mi WSW 4.5 mph - -   Haze
7:20 PM 28.4 °F 23.3 °F 21.2 °F 74% 30.06 in 3.7 mi West 4.6 mph - N/A   Overcast
7:50 PM 28.4 °F 23.3 °F 23.0 °F 80% 30.06 in 3.7 mi WSW 4.6 mph - N/A   Overcast
8:20 PM 28.4 °F 21.2 °F 23.0 °F 80% 30.06 in 3.1 mi West 6.9 mph - N/A   Overcast
8:50 PM 28.4 °F 20.4 °F 23.0 °F 80% 30.06 in 3.1 mi WSW 8.1 mph - N/A   Overcast
9:00 PM 28 °F - 26 °F 86% 30.19 in 3 mi West 4.5 mph - -   Mist
9:20 PM 28.4 °F 19.7 °F 24.8 °F 86% 30.09 in 1.7 mi WSW 9.2 mph - N/A Snow Light Snow
9:50 PM 28.4 °F 20.4 °F 24.8 °F 86% 30.09 in 1.7 mi WSW 8.1 mph - N/A Snow Light Snow
10:20 PM 28.4 °F 20.4 °F 24.8 °F 86% 30.09 in 1.4 mi WSW 8.1 mph - N/A Snow Light Snow
10:50 PM 28.4 °F 22.2 °F 24.8 °F 86% 30.09 in 1.4 mi WSW 5.8 mph - N/A Snow Light Snow
11:00 PM 28 °F - 26 °F 89% 30.20 in 1 mi WSW 4.5 mph - - Snow Light Snow
11:20 PM 28.4 °F 22.2 °F 24.8 °F 86% 30.09 in 1.2 mi SW 5.8 mph - N/A Snow Light Snow
11:50 PM 28.4 °F 22.2 °F 24.8 °F 86% 30.09 in 1.7 mi WSW 5.8 mph - N/A Snow Light Snow